Location: Fort Wayne
(41.1310°N, 85.1290°W)
Time: 09:01:42
(UTC-04:00)

Daily predictions for brighter satellites

Satellite Brightness Start Highest point End
(mag) Time Altitude Azimuth Time Altitude Azimuth Time Altitude Azimuth
Cosmos 2184 Rocket 4.1 21:18:27 10° S 21:24:37 90° W 21:30:51 10° N
Cosmos 2082 Rocket 3.7 21:21:12 10° N 21:25:38 23° NE 21:30:02 10° ESE
CENTAUR R/B 4.3 21:21:37 10° NW 21:28:56 42° WSW 21:36:34 10° S
SPOT 5 4.3 21:24:38 10° ESE 21:28:57 26° ENE 21:33:19 10° N
Cosmos 1452 Rocket 3.5 21:28:14 10° S 21:33:28 70° ESE 21:38:44 10° NNE
Cosmos 1184 Rocket 3.6 21:35:18 10° SSE 21:38:18 32° E 21:41:21 10° NNE
Cosmos 1674 Rocket 3.8 21:35:27 10° N 21:39:54 76° W 21:44:18 10° S
Cosmos 2297 4.3 21:39:44 10° SSE 21:44:51 35° ESE 21:50:00 10° NE
H-2A R/B 4.5 21:43:59 10° SW 21:48:12 31° SSE 22:05:15 10° ESE
Okean 2 Rocket 3.5 21:48:51 10° SSE 21:52:59 41° E 21:57:07 10° NNE
Cosmos 1606 2.8 21:50:18 10° N 21:54:15 82° W 21:58:09 10° S
BREEZE-M DEB (TANK) 3.8 21:53:23 10° WNW 21:55:03 19° NNW 21:56:48 10° NE
Cosmos 2084 4.4 21:52:11 10° SW 21:55:55 46° NW 21:59:37 10° NNE
Cosmos 1782 Rocket 3.7 21:53:25 10° S 21:57:47 58° E 22:02:12 10° NNE
EO 1 Delta rocket 4.2 21:52:54 10° NNE 21:58:39 60° E 22:03:25 10° S
CZ-4 DEB 3.7 21:57:01 10° S 22:00:04 46° W 22:03:08 10° NNW
USA 229 DEB 4.3 21:54:18 10° NNW 22:01:09 47° NE 22:07:00 14° ESE
USA 229 4.3 21:54:24 10° NNW 22:01:14 47° NE 22:07:06 14° ESE
Cosmos 1242 Rocket 3.0 21:58:32 10° N 22:02:05 45° ENE 22:04:46 16° SE
USA 186 4.3 22:02:21 10° SSW 22:04:53 22° W 22:07:32 10° NW
Cosmos 1850 Rocket 4.2 21:59:54 10° NNW 22:05:10 57° ENE 22:09:24 16° SE
ALOS 4.3 22:01:59 10° SSW 22:05:57 27° W 22:09:57 10° NW
COS B Rocket 3.0 22:03:13 10° N 22:07:08 83° E 22:10:33 10° S
Cosmos 1862 3.6 22:03:32 10° SSW 22:07:35 70° W 22:11:41 10° N
Elektron 3 4.1 22:05:42 10° NNW 22:08:35 64° NE 22:11:16 19° SE
Cosmos 1954 Rocket 4.3 22:03:59 10° NNW 22:09:09 66° WSW 22:14:21 10° S
Nadezhda 3 Rocket 4.2 22:04:07 10° N 22:10:30 81° W 22:16:52 10° S
GPS 2-05 Rocket1 3.8 22:08:45 10° WSW 22:12:09 33° S 22:13:49 22° SE
Cosmos 1975 Rocket 3.0 22:08:00 10° N 22:12:21 76° E 22:16:09 13° SSE
ARGOS 4.1 22:09:05 16° ESE 22:12:30 32° ENE 22:17:11 10° N
YAOGAN 6 3.4 22:10:46 21° ESE 22:12:31 33° ENE 22:15:44 10° N
OAO 3 Rocket 3.9 22:08:04 10° SW 22:12:34 35° S 22:15:30 19° ESE
DNEPR-1 R/B 3.8 22:07:36 10° NNW 22:12:59 89° SW 22:16:17 18° SSE
Lacrosse 5 rocket 2.3 22:09:58 10° S 22:13:03 22° SE 22:16:01 10° ENE
Cosmos 2218 Rocket 4.4 22:08:10 10° SSE 22:14:09 44° E 22:20:09 10° NNE
BREEZE-M DEB (TANK) 4.4 22:12:11 10° WNW 22:14:47 35° N 22:20:38 10° ENE
Cosmos 1408 3.0 22:11:35 10° SSW 22:15:12 62° W 22:18:49 10° N
PSLV R/B 3.6 22:16:18 27° SE 22:17:26 40° ENE 22:20:15 10° N
Meteor 1-27 Rocket 4.4 22:14:14 10° NNW 22:19:36 53° W 22:24:56 10° S
Cosmos 1378 Rocket 4.2 22:16:04 10° NNW 22:20:17 54° W 22:24:30 10° S
Gbstr 26 Del rocket 4.5 22:18:54 10° NW 22:23:54 36° NNE 22:27:30 13° E
CZ-4 SHROUD 3.4 22:23:32 31° SE 22:24:40 50° ENE 22:27:42 10° N
AVUM R/B 4.4 22:21:42 10° N 22:24:54 32° ENE 22:26:05 25° E
Cosmos 1536 Rocket 4.5 22:21:10 10° NNE 22:25:14 33° ENE 22:27:03 24° ESE
Cosmos 1741 Rocket 3.9 22:22:09 10° NNW 22:27:25 86° ENE 22:31:03 20° SSE
Nimbus 7 Rocket 4.4 22:23:26 10° NNE 22:29:25 90° WNW 22:35:25 10° SSW
MetOp-A 4.1 22:31:18 19° SSE 22:35:12 84° ENE 22:40:35 10° NNW
Cosmos 1110 Rocket 4.4 22:35:43 22° SSE 22:38:37 42° ESE 22:43:31 10° NNE
Cosmos 1825 4.0 22:35:32 10° SW 22:38:57 31° WNW 22:42:24 10° NNW
Envisat 3.7 22:35:07 10° S 22:39:59 52° W 22:44:57 10° NNW
Cosmos 614 Rocket 4.0 22:34:55 10° NNW 22:40:00 79° WSW 22:43:07 24° SSE
SEDSat Delta rocket 4.3 22:38:16 10° SW 22:41:22 21° S 22:41:22 21° S
Cosmos 1833 Rocket 2.7 22:36:33 10° NNW 22:42:10 67° ENE 22:45:06 29° SE
SL-8 Rocket 4.0 22:38:56 10° S 22:45:12 89° W 22:51:29 10° N
Terra 3.1 22:44:32 22° E 22:45:55 25° ENE 22:49:47 10° NNE
USA 245 3.2 22:46:36 41° SSE 22:47:46 73° ENE 22:52:10 10° N
ISS -0.5 22:47:07 10° WNW 22:49:35 20° NNW 22:52:04 10° NNE
Cosmos 2278 Rocket 3.9 22:45:01 10° WSW 22:50:11 35° WNW 22:55:23 10° N
H-2A R/B 3.3 22:46:49 12° SSW 22:50:20 36° W 22:54:14 10° NNW
Timation 1 Rocket 4.3 22:51:06 10° SSW 22:57:04 70° ESE 23:03:03 10° NNE
Abrixas 2.7 22:54:21 10° WSW 22:57:22 68° NNW 22:58:22 38° NE
USA 234 4.3 22:54:26 10° ENE 22:58:07 23° ESE 22:58:07 23° ESE
Cosmos 2151 Rocket 3.6 22:56:55 23° SSW 22:59:41 82° W 23:04:14 10° N
Meteor 1-25 Rocket 4.2 22:58:34 24° S 23:02:11 74° E 23:08:00 10° NNE
Cosmos 1300 Rocket 3.9 23:04:46 44° ESE 23:05:11 45° E 23:09:26 10° NNE
CZ-4B R/B 3.3 23:00:34 10° NNE 23:05:30 89° WNW 23:08:19 25° SSW
SPOT 5 4.1 23:02:47 16° SSW 23:06:43 43° W 23:11:49 10° NNW
Cosmos 2082 Rocket 2.6 23:04:33 10° NNW 23:10:08 58° WSW 23:12:49 30° S
Okean 1 3.4 23:06:21 10° N 23:10:22 55° E 23:10:39 54° E
Okean 1 Rocket 3.3 23:13:53 49° ESE 23:14:04 49° E 23:18:23 10° NNE
Cosmos 1812 2.5 23:11:06 10° N 23:14:59 77° E 23:15:11 74° ESE
Lacrosse 5 1.7 23:14:04 10° SSW 23:19:06 67° SE 23:24:10 10° NE
Genesis I 3.9 23:21:07 43° ENE 23:21:07 43° ENE 23:24:03 10° NE
H-2A R/B 2.1 23:20:50 48° SE 23:22:16 69° ENE 23:27:31 10° N
Cosmos 1302 Rocket 3.9 23:32:20 58° SSE 23:33:10 69° ESE 23:38:27 10° NNE
Okean 1-7 Rocket 3.4 23:30:20 10° N 23:34:49 75° E 23:34:56 74° E
Meteor 1-13 Rocket 4.3 23:36:35 10° N 23:42:35 79° E 23:43:51 57° SSE
Cosmos 1633 4.5 23:44:51 22° NE 23:44:51 22° NE 23:46:31 10° NNE
ASTEX 1 3.3 23:39:13 10° N 23:44:11 72° E 23:44:25 70° ESE
Iridium 4 Rocket 4.0 23:43:02 10° N 23:48:49 53° E 23:49:23 51° ESE
CARTOSAT-1 3.6 23:49:49 70° W 23:49:49 70° W 23:54:06 10° NNW
Lacrosse 5 rocket 2.3 23:48:21 10° WSW 23:52:04 42° NW 23:55:39 10° NNE
ARGOS 4.4 23:50:37 25° SW 23:52:40 33° W 23:57:29 10° NNW
